Temp
-15 -14 -14 -14 -14 -14 -14 -13 -13 -13 -13 -13 -13 -13 -13 -13 -13 -13 -13 -13 -13 -13 -13 -13 -13 -13 -13 -13 -13 -13 -13 -14 -14 -15 -15 -15 -15 -15 -15 -15 -15 -15 -15 -15
-15 -15 -15 -15 -14 -14 -14 -14 -14 -13 -13 -13 -13 -13 -13 -13 -13 -13 -13 -13 -13 -13 -13 -13 -13 -13 -13 -13 -13 -13 -14 -14 -15 -15 -15 -15 -15 -15 -15 -15 -15 -15 -15 -16
-16 -15 -15 -15 -15 -15 -15 -14 -14 -14 -14 -14 -13 -13 -14 -14 -14 -13 -13 -13 -13 -13 -13 -13 -14 -13 -13 -13 -13 -14 -15 -15 -15 -15 -16 -16 -16 -16 -16 -16 -16 -16 -16 -16
-16 -16 -16 -15 -15 -15 -15 -15 -14 -14 -14 -14 -14 -13 -14 -14 -14 -14 -13 -13 -13 -13 -13 -14 -14 -13 -13 -14 -14 -15 -15 -15 -15 -15 -15 -16 -16 -16 -16 -16 -16 -17 -17 -17
-16 -16 -16 -16 -15 -15 -15 -15 -15 -15 -14 -14 -14 -14 -14 -14 -14 -14 -14 -14 -14 -14 -14 -14 -14 -14 -14 -14 -14 -15 -15 -15 -15 -15 -16 -16 -16 -16 -16 -17 -17 -18 -18 -18
-17 -16 -16 -16 -16 -16 -16 -15 -15 -15 -15 -14 -15 -15 -14 -14 -14 -14 -14 -14 -14 -14 -14 -14 -14 -14 -14 -15 -15 -15 -15 -15 -16 -16 -16 -16 -16 -17 -17 -18 -18 -18 -18 -18
-17 -17 -17 -16 -16 -16 -16 -16 -16 -15 -15 -14 -15 -15 -15 -15 -14 -14 -14 -14 -14 -14 -14 -14 -14 -14 -15 -15 -15 -15 -15 -15 -16 -16 -16 -17 -17 -17 -18 -18 -18 -18 -18 -19
-17 -17 -17 -17 -17 -17 -16 -16 -16 -15 -15 -15 -15 -15 -15 -15 -15 -15 -15 -14 -14 -14 -14 -14 -14 -15 -15 -15 -15 -15 -15 -15 -16 -16 -17 -17 -18 -19 -19 -19 -18 -18 -19 -19
-17 -17 -17 -17 -17 -17 -16 -16 -16 -16 -16 -16 -15 -15 -15 -15 -15 -15 -15 -15 -15 -15 -15 -15 -15 -15 -15 -15 -15 -15 -15 -15 -16 -17 -18 -18 -19 -19 -19 -19 -18 -18 -19 -18
-17 -17 -17 -17 -17 -17 -16 -16 -17 -16 -16 -16 -15 -15 -15 -16 -16 -16 -15 -15 -15 -15 -15 -15 -15 -15 -15 -15 -15 -15 -15 -15 -16 -17 -18 -19 -20 -19 -19 -19 -18 -19 -19 -18
-18 -17 -17 -16 -16 -17 -16 -16 -17 -17 -16 -16 -16 -15 -16 -17 -16 -16 -15 -15 -15 -15 -15 -15 -15 -15 -15 -15 -15 -15 -15 -16 -16 -17 -18 -20 -20 -19 -19 -19 -19 -19 -19 -19
-18 -17 -17 -17 -17 -16 -17 -16 -17 -16 -16 -16 -16 -16 -16 -17 -16 -16 -16 -15 -16 -15 -15 -15 -15 -15 -15 -15 -15 -15 -15 -16 -16 -18 -19 -21 -20 -19 -19 -19 -19 -19 -19 -19
-18 -18 -17 -17 -17 -17 -16 -17 -17 -17 -16 -16 -16 -15 -16 -17 -17 -17 -15 -15 -16 -16 -15 -15 -16 -16 -15 -15 -15 -15 -15 -16 -17 -19 -21 -20 -20 -20 -19 -19 -19 -19 -19 -19
-19 -19 -18 -17 -17 -17 -17 -17 -18 -18 -16 -16 -15 -16 -17 -17 -17 -16 -15 -16 -16 -16 -16 -16 -16 -16 -15 -15 -15 -15 -15 -16 -18 -20 -21 -20 -20 -20 -19 -19 -19 -19 -19 -18
-20 -19 -19 -19 -18 -18 -17 -17 -17 -16 -16 -16 -16 -16 -17 -17 -17 -16 -16 -16 -16 -16 -16 -16 -16 -16 -16 -16 -15 -15 -16 -17 -20 -21 -21 -20 -20 -20 -20 -19 -19 -19 -18 -19
-20 -20 -19 -19 -18 -18 -17 -17 -17 -16 -16 -16 -16 -15 -17 -17 -16 -16 -16 -16 -16 -16 -16 -16 -16 -16 -16 -16 -16 -16 -16 -18 -20 -20 -20 -20 -20 -20 -20 -19 -19 -18 -19 -19
-20 -20 -20 -19 -19 -18 -17 -16 -16 -16 -17 -17 -16 -16 -17 -17 -16 -16 -16 -16 -16 -16 -16 -16 -16 -16 -16 -16 -16 -16 -16 -19 -20 -20 -20 -20 -20 -20 -20 -20 -19 -18 -19 -19
-21 -20 -21 -19 -19 -18 -16 -17 -17 -16 -17 -16 -16 -16 -17 -16 -16 -16 -16 -16 -16 -16 -16 -16 -16 -16 -16 -16 -16 -16 -16 -19 -20 -20 -20 -20 -20 -20 -20 -20 -19 -19 -19 -19
-20 -21 -21 -20 -19 -18 -18 -18 -18 -17 -16 -17 -16 -17 -16 -16 -16 -16 -16 -16 -16 -16 -16 -16 -16 -16 -16 -16 -16 -16 -16 -18 -20 -20 -20 -20 -20 -20 -20 -20 -19 -19 -19 -19
-21 -21 -21 -20 -19 -19 -19 -19 -18 -17 -17 -17 -17 -17 -16 -17 -17 -16 -16 -16 -16 -16 -16 -16 -16 -16 -16 -16 -16 -16 -16 -18 -19 -19 -20 -20 -20 -20 -20 -20 -20 -19 -19 -18
-21 -21 -21 -20 -20 -19 -20 -20 -19 -18 -17 -17 -17 -17 -17 -17 -17 -17 -16 -16 -16 -16 -17 -17 -17 -16 -16 -16 -16 -16 -16 -17 -18 -19 -20 -20 -20 -20 -20 -20 -20 -20 -20 -20
-22 -21 -21 -20 -20 -19 -21 -20 -19 -18 -18 -18 -17 -17 -18 -17 -17 -17 -17 -16 -16 -17 -17 -17 -17 -17 -17 -17 -17 -17 -17 -17 -17 -18 -19 -19 -20 -20 -20 -20 -20 -20 -20 -20
-22 -21 -21 -21 -20 -21 -21 -20 -20 -19 -19 -18 -18 -18 -18 -18 -17 -17 -17 -17 -17 -17 -17 -17 -17 -17 -17 -17 -17 -17 -17 -17 -17 -17 -18 -19 -19 -19 -20 -20 -20 -20 -20 -20
-22 -22 -21 -21 -21 -21 -21 -21 -20 -19 -19 -19 -18 -19 -18 -17 -17 -17 -17 -17 -17 -17 -18 -18 -17 -17 -17 -17 -17 -17 -17 -17 -17 -18 -18 -18 -19 -19 -19 -20 -20 -20 -20 -20
-22 -22 -21 -20 -21 -21 -21 -21 -20 -20 -20 -19 -18 -18 -18 -18 -18 -17 -17 -17 -17 -18 -17 -18 -17 -17 -17 -17 -17 -17 -17 -18 -18 -18 -18 -18 -19 -19 -19 -19 -19 -20 -20 -20
-21 -21 -21 -20 -22 -22 -22 -21 -21 -21 -20 -20 -19 -19 -19 -18 -18 -18 -18 -18 -18 -18 -18 -18 -17 -17 -17 -17 -17 -18 -18 -18 -18 -18 -18 -18 -18 -19 -19 -19 -19 -19 -20 -20
Height
5680 5683 5688 5690 5691 5695 5697 5699 5701 5702 5704 5705 5707 5709 5707 5708 5711 5710 5709 5710 5712 5711 5711 5711 5710 5709 5707 5704 5701 5697 5693 5687 5683 5680 5678 5674 5671 5667 5662 5658 5654 5650 5645 5642
5674 5678 5680 5683 5686 5688 5690 5692 5694 5696 5697 5698 5700 5702 5701 5701 5703 5704 5703 5704 5704 5704 5704 5704 5703 5702 5699 5697 5693 5688 5683 5678 5674 5671 5668 5664 5660 5656 5651 5646 5640 5635 5630 5625
5666 5672 5673 5676 5678 5681 5683 5685 5687 5689 5690 5691 5692 5694 5695 5695 5695 5696 5697 5697 5698 5697 5697 5697 5697 5695 5692 5688 5684 5678 5674 5670 5666 5662 5657 5653 5648 5643 5637 5632 5626 5620 5614 5609
5658 5664 5666 5669 5672 5674 5675 5679 5680 5682 5682 5683 5685 5684 5689 5689 5688 5689 5689 5690 5691 5691 5691 5691 5690 5687 5683 5679 5675 5671 5667 5663 5658 5652 5647 5641 5636 5630 5622 5615 5608 5601 5596 5592
5652 5656 5658 5661 5664 5666 5669 5671 5673 5674 5674 5675 5678 5676 5683 5682 5682 5682 5682 5682 5683 5683 5683 5683 5682 5679 5675 5672 5667 5663 5659 5654 5648 5642 5635 5629 5622 5614 5606 5598 5591 5584 5579 5576
5643 5647 5650 5653 5656 5659 5662 5664 5666 5666 5667 5666 5671 5671 5675 5675 5676 5675 5675 5676 5676 5676 5676 5676 5674 5671 5668 5664 5660 5656 5650 5644 5637 5631 5623 5615 5607 5598 5590 5582 5575 5570 5565 5560
5636 5638 5642 5646 5648 5651 5654 5657 5658 5659 5659 5659 5664 5663 5667 5668 5668 5669 5669 5669 5669 5669 5669 5669 5667 5665 5661 5657 5652 5648 5642 5635 5627 5619 5610 5601 5592 5583 5575 5568 5563 5557 5552 5548
5626 5629 5633 5638 5641 5644 5645 5648 5650 5650 5651 5653 5655 5655 5661 5661 5661 5661 5662 5662 5662 5662 5662 5661 5659 5657 5654 5650 5645 5640 5633 5625 5616 5607 5597 5587 5578 5570 5563 5556 5550 5545 5540 5535
5615 5617 5623 5626 5629 5633 5637 5639 5644 5643 5643 5644 5646 5650 5653 5654 5655 5654 5655 5655 5656 5655 5655 5654 5652 5649 5646 5641 5636 5630 5623 5614 5605 5595 5585 5575 5565 5557 5550 5543 5537 5532 5528 5522
5606 5607 5609 5614 5618 5621 5625 5632 5633 5633 5635 5636 5637 5642 5645 5647 5647 5646 5647 5649 5649 5647 5647 5646 5644 5641 5638 5633 5628 5621 5613 5603 5593 5582 5572 5562 5553 5545 5539 5533 5527 5522 5515 5510
5595 5598 5601 5603 5607 5612 5616 5619 5623 5627 5627 5628 5631 5634 5639 5640 5639 5638 5639 5641 5641 5640 5640 5639 5636 5634 5630 5626 5620 5613 5603 5592 5581 5569 5559 5549 5541 5535 5529 5524 5518 5512 5506 5499
5586 5587 5590 5594 5597 5599 5603 5608 5612 5614 5619 5622 5624 5626 5629 5633 5632 5630 5630 5633 5634 5633 5632 5631 5629 5626 5623 5618 5612 5604 5593 5582 5570 5558 5548 5540 5533 5527 5522 5515 5510 5505 5498 5489
5577 5579 5581 5584 5588 5591 5594 5599 5604 5608 5610 5611 5615 5617 5623 5624 5624 5620 5622 5624 5625 5625 5625 5623 5621 5619 5615 5610 5604 5595 5584 5572 5559 5548 5539 5532 5527 5521 5515 5508 5502 5497 5490 5480
5567 5569 5572 5577 5578 5582 5585 5591 5594 5597 5599 5602 5607 5612 5615 5615 5614 5611 5615 5617 5617 5618 5618 5616 5614 5611 5608 5603 5595 5586 5575 5562 5550 5540 5533 5527 5521 5515 5509 5503 5496 5490 5482 5472
5558 5561 5563 5565 5567 5570 5575 5581 5584 5587 5592 5594 5600 5604 5608 5606 5604 5604 5608 5608 5609 5610 5610 5608 5607 5604 5601 5595 5588 5578 5567 5553 5542 5534 5529 5523 5517 5510 5504 5497 5490 5483 5475 5467
5550 5552 5553 5556 5558 5560 5564 5570 5574 5579 5582 5585 5593 5597 5597 5597 5595 5598 5599 5600 5602 5602 5602 5601 5599 5597 5593 5588 5581 5572 5561 5547 5537 5531 5526 5520 5514 5507 5501 5494 5486 5478 5470 5464
5539 5541 5544 5547 5549 5550 5553 5562 5565 5569 5573 5578 5581 5590 5585 5589 5590 5592 5593 5594 5594 5595 5595 5594 5592 5590 5586 5582 5575 5567 5555 5543 5534 5529 5524 5518 5512 5505 5498 5491 5484 5476 5469 5462
5526 5530 5534 5537 5540 5542 5549 5552 5556 5559 5564 5569 5573 5579 5578 5579 5583 5585 5585 5588 5588 5588 5588 5587 5586 5583 5580 5576 5570 5562 5551 5540 5532 5527 5522 5517 5511 5504 5497 5491 5484 5477 5468 5463
5515 5520 5524 5527 5532 5538 5540 5543 5547 5551 5557 5561 5563 5568 5569 5573 5576 5577 5579 5580 5580 5581 5581 5580 5578 5576 5573 5570 5564 5557 5547 5538 5531 5526 5520 5516 5510 5505 5498 5493 5486 5478 5471 5463
5505 5510 5516 5519 5525 5529 5532 5535 5538 5543 5549 5552 5556 5558 5562 5566 5568 5569 5571 5572 5573 5573 5573 5572 5571 5569 5567 5564 5559 5553 5545 5536 5531 5526 5520 5515 5511 5506 5500 5495 5488 5480 5473 5465
5494 5499 5505 5511 5515 5522 5528 5529 5532 5536 5544 5542 5546 5550 5553 5557 5560 5562 5562 5564 5565 5566 5565 5565 5564 5563 5561 5559 5555 5550 5543 5536 5530 5526 5520 5516 5512 5507 5502 5497 5491 5483 5475 5468
5483 5490 5497 5504 5509 5515 5523 5521 5526 5528 5530 5534 5538 5542 5546 5549 5553 5554 5554 5556 5557 5557 5557 5557 5557 5556 5555 5554 5551 5546 5541 5535 5530 5525 5520 5516 5512 5508 5505 5500 5495 5489 5481 5475
5470 5479 5488 5497 5505 5509 5511 5515 5517 5520 5524 5527 5531 5535 5538 5542 5544 5545 5546 5548 5549 5550 5549 5549 5549 5549 5548 5547 5545 5542 5538 5533 5528 5525 5521 5517 5513 5508 5505 5502 5498 5492 5486 5480
5458 5468 5476 5486 5496 5501 5503 5508 5511 5514 5518 5520 5524 5528 5532 5534 5536 5536 5538 5539 5540 5541 5541 5542 5542 5541 5541 5541 5539 5537 5534 5530 5527 5524 5519 5515 5513 5510 5505 5502 5498 5494 5490 5485
5447 5457 5470 5479 5487 5493 5494 5501 5504 5507 5510 5514 5517 5522 5525 5528 5528 5529 5530 5531 5532 5533 5534 5534 5534 5534 5534 5534 5533 5531 5528 5526 5524 5521 5518 5513 5510 5508 5505 5502 5498 5494 5490 5487
5440 5454 5461 5473 5479 5482 5485 5491 5497 5501 5504 5507 5510 5514 5517 5520 5522 5523 5523 5523 5524 5524 5525 5525 5526 5526 5525 5526 5525 5524 5522 5520 5518 5515 5513 5510 5508 5503 5501 5499 5496 5493 5489 5486
Wind_Speed
35 35 32 34 34 33 32 32 32 32 31 31 30 28 30 32 29 31 32 31 30 29 31 31 28 27 31 35 39 42 42 42 42 42 46 49 50 49 49 50 51 54 59 62
34 33 36 36 35 34 34 34 33 32 32 33 31 28 31 32 30 30 30 29 30 30 32 29 26 28 31 35 37 38 38 40 41 41 43 44 46 50 53 56 59 62 63 65
34 33 35 36 36 36 35 35 34 33 33 33 33 32 31 31 30 30 28 28 28 30 31 27 27 30 31 33 33 33 35 36 38 41 45 47 49 51 53 56 59 62 65 65
36 33 34 36 35 36 37 34 33 33 34 36 33 35 28 28 30 28 28 27 28 30 29 27 28 29 27 29 30 33 37 41 44 47 51 52 53 55 60 63 63 63 61 60
38 36 36 37 36 36 35 34 34 34 34 35 31 35 26 27 28 27 27 27 29 29 28 27 27 25 24 26 28 31 35 40 44 49 52 54 58 62 62 61 59 54 53 54
41 40 39 38 36 37 35 34 33 34 33 37 30 30 27 27 29 29 28 28 29 28 28 28 26 23 23 25 27 32 38 44 47 50 54 59 60 60 60 56 51 49 48 49
46 41 39 38 36 37 35 33 34 36 36 37 30 32 28 27 29 29 28 27 27 28 29 29 26 24 23 25 29 34 41 46 50 54 58 59 60 59 56 49 47 46 46 46
44 49 49 47 47 41 35 35 35 37 37 36 32 34 26 26 29 29 28 28 28 29 28 27 24 23 24 28 33 37 43 50 55 58 60 62 61 57 50 45 45 45 43 47
37 41 48 49 50 48 48 42 37 40 39 38 36 31 26 27 28 29 28 28 28 30 27 25 24 25 26 30 35 39 46 53 58 59 61 63 62 54 45 44 45 41 42 38
39 38 37 47 53 52 49 42 39 40 40 38 38 31 27 25 28 30 32 31 29 31 30 28 27 29 30 33 36 42 49 57 60 62 63 60 56 45 41 42 42 40 37 40
40 40 34 38 47 51 52 48 43 40 41 39 37 32 27 26 33 35 35 31 28 31 30 29 29 31 32 34 38 44 52 58 62 62 58 52 44 38 39 39 38 36 40 46
40 39 37 35 40 42 42 44 42 43 41 38 38 35 30 28 32 35 33 28 29 30 30 31 32 32 32 33 38 46 53 60 63 57 50 44 35 37 37 36 33 36 42 43
33 37 38 36 39 40 42 43 42 41 40 40 40 37 29 31 28 34 30 26 29 29 27 30 31 30 30 32 39 47 55 61 60 48 42 35 35 36 35 34 36 40 41 42
32 34 36 35 38 37 39 40 42 42 41 41 35 31 27 28 29 36 29 26 28 27 27 28 27 28 30 34 40 47 55 60 51 40 35 32 35 36 32 33 32 35 39 42
33 32 35 35 36 39 40 38 41 42 41 39 34 27 24 25 31 34 26 27 26 26 27 27 26 28 29 34 39 46 54 55 42 34 29 30 36 33 33 32 33 34 39 33
36 32 33 33 37 38 40 41 40 40 43 40 29 26 22 28 35 30 27 26 25 26 26 26 25 27 28 33 36 44 52 48 35 28 28 32 32 29 31 35 34 35 31 35
34 29 28 31 32 39 41 38 41 39 39 38 35 25 26 27 28 25 26 26 27 25 25 26 25 25 28 31 33 42 48 41 32 25 25 30 29 28 29 30 30 31 30 35
42 38 32 32 29 33 34 38 42 43 39 39 34 28 28 31 26 23 27 24 25 25 26 25 24 24 28 27 29 37 40 36 27 21 25 26 27 27 26 25 27 34 28 26
54 46 43 38 34 31 30 34 36 41 40 38 38 32 34 28 26 26 24 25 25 23 24 24 23 23 26 25 26 31 33 31 24 22 23 21 24 26 23 22 25 29 25 27
53 52 45 46 41 37 31 31 32 36 37 38 33 34 31 27 26 25 24 25 24 23 24 23 22 22 23 22 21 24 25 26 23 22 20 18 22 25 21 18 20 24 28 29
55 55 51 46 44 41 28 27 24 32 30 32 32 30 27 27 26 23 25 24 22 22 23 22 22 22 22 20 15 18 18 18 19 17 17 18 19 19 17 19 23 26 29 31
55 55 54 50 45 42 27 30 27 26 34 32 31 29 27 26 24 26 27 26 24 23 22 22 23 23 21 19 16 13 11 13 15 13 13 13 14 15 15 17 20 24 27 30
56 55 52 49 43 36 36 28 26 28 28 27 28 28 27 25 25 28 28 26 27 25 23 23 24 23 21 19 16 11 9 8 10 11 11 11 12 14 14 15 18 20 22 25
56 52 51 49 43 34 36 24 24 26 29 26 27 26 26 25 26 28 28 27 28 26 23 24 25 25 22 20 17 13 11 9 7 7 7 9 11 12 13 14 15 17 18 18
57 52 47 45 41 36 38 31 29 28 27 32 31 28 26 24 27 28 28 29 29 28 25 27 27 27 24 23 20 17 14 13 10 10 7 6 8 12 15 16 16 16 15 15
58 49 45 43 37 39 39 38 34 33 31 30 29 28 27 27 26 29 30 32 31 31 31 31 30 29 26 26 26 23 21 19 18 15 13 12 12 11 13 16 16 16 15 14
Wind_Direction
229 230 231 232 234 238 241 244 246 249 251 256 261 264 269 268 260 261 264 265 264 267 270 271 276 285 292 296 301 309 311 305 301 293 285 287 289 290 286 285 282 283 287 288
234 232 232 234 236 240 242 245 247 249 253 256 259 263 265 267 265 259 262 266 267 269 271 274 282 289 294 301 310 318 316 312 305 301 296 294 292 288 286 286 287 287 286 285
234 234 235 237 238 241 243 245 247 251 254 259 264 265 262 266 266 263 261 263 268 270 272 277 283 288 296 309 320 323 320 313 306 301 297 294 293 292 290 288 285 283 283 284
237 235 237 238 240 242 243 246 249 252 257 262 264 266 260 262 264 262 263 266 268 271 273 277 283 289 307 318 322 320 315 310 306 301 300 295 296 294 293 292 289 287 283 282
237 238 238 238 239 242 245 247 251 254 258 261 261 267 259 256 259 259 260 265 269 270 273 276 282 292 309 314 316 317 318 317 308 305 305 304 302 300 299 297 294 290 287 285
235 238 239 239 240 243 246 247 251 253 255 258 262 262 259 256 258 259 258 262 267 270 272 275 281 295 305 311 315 315 318 313 312 311 308 306 305 305 303 300 295 293 291 288
237 240 241 242 241 243 245 247 250 253 255 262 260 258 263 258 261 262 260 262 266 268 270 276 280 290 300 309 313 315 317 316 313 311 310 308 307 306 306 300 298 295 292 291
247 245 244 244 242 240 243 244 249 256 259 261 257 258 259 257 258 261 261 263 267 268 271 277 283 290 300 304 307 312 317 315 311 311 311 309 309 309 305 301 301 299 293 294
250 251 247 246 242 242 242 245 252 255 256 258 257 256 256 255 258 261 262 261 264 266 268 278 283 289 301 306 310 313 316 315 314 314 310 309 308 308 304 304 307 303 298 294
245 252 255 246 244 249 243 243 245 249 254 255 259 257 256 254 259 259 259 261 265 269 268 277 282 290 299 304 310 314 318 317 316 314 311 308 308 306 306 306 308 304 304 303
245 250 256 248 239 243 246 246 244 245 248 253 260 256 255 257 257 262 262 257 265 267 271 276 280 291 298 305 312 318 318 319 317 314 313 310 312 309 309 310 311 317 310 307
248 244 250 253 242 237 236 237 235 237 244 253 257 255 259 259 263 264 264 261 261 264 272 275 283 291 298 307 319 321 321 320 317 317 314 316 315 314 315 314 318 319 316 315
245 250 251 243 243 240 240 235 233 238 246 249 252 258 256 261 265 263 263 264 263 270 276 281 287 293 301 311 321 322 325 321 321 318 318 319 318 319 320 321 313 313 320 320
247 251 252 250 244 242 237 238 238 239 242 248 253 255 259 266 261 259 261 267 267 272 278 282 289 294 301 309 321 326 327 323 324 321 322 323 324 326 328 326 323 326 327 327
243 250 249 249 245 238 239 241 241 241 246 249 251 244 252 254 255 261 270 270 270 276 279 284 289 294 301 313 325 332 329 328 328 326 328 330 330 331 335 339 340 338 334 334
235 256 251 249 247 247 243 241 239 239 243 244 249 234 252 242 253 268 273 270 270 276 278 282 288 295 304 317 330 335 331 331 332 329 333 335 334 333 333 338 344 342 342 343
239 235 236 241 249 246 244 239 237 237 235 240 234 237 249 241 255 259 263 266 268 274 277 280 286 294 304 317 332 336 334 334 336 332 337 339 337 339 339 344 346 349 341 350
227 228 235 237 247 245 244 247 239 236 234 237 237 240 242 243 253 259 253 259 264 269 270 275 282 291 306 316 332 337 339 339 338 342 342 343 346 353 354 355 356 360 4 9
224 232 237 240 240 244 244 249 244 237 235 237 236 238 238 240 247 249 255 260 266 271 270 270 277 293 307 313 330 341 347 349 346 341 347 347 351 360 2 353 351 2 8 6
227 232 236 238 238 244 244 250 245 238 240 238 239 234 228 237 243 250 256 260 269 272 274 271 278 292 303 309 326 344 353 358 350 339 347 351 352 3 7 4 4 10 11 14
229 230 232 235 239 240 250 256 251 235 225 225 228 228 230 238 243 250 254 263 271 275 273 270 277 287 295 301 317 342 5 8 2 345 355 3 359 18 26 31 36 38 37 34
229 231 233 237 242 241 249 249 241 227 225 223 227 228 230 243 246 249 257 262 266 271 268 269 271 280 286 292 303 327 5 32 36 20 11 15 24 35 28 29 32 36 42 48
230 229 231 234 238 244 250 246 239 233 228 222 222 223 231 238 243 251 257 263 268 269 264 266 267 275 279 282 293 305 330 9 29 37 37 37 27 27 22 18 19 26 32 38
230 229 229 230 233 237 248 243 239 237 233 228 225 223 231 238 244 252 258 263 267 268 261 266 266 272 273 272 280 285 295 310 330 0 18 22 9 3 2 2 3 9 19 28
227 228 229 228 229 234 241 235 231 231 234 236 234 233 234 237 244 250 257 261 265 267 262 262 266 270 270 269 267 268 275 281 290 304 323 350 352 343 345 350 349 351 360 10
226 224 227 225 226 227 234 237 238 237 237 242 238 237 238 238 244 251 256 261 263 264 263 260 262 270 271 266 266 262 262 264 264 273 292 299 303 304 312 321 323 328 329 334